Location: Unspecified
(47.6578°N, 23.5640°E)
Time: 04:29:30
(UTC+03:00)

ISS - Pass Details

Date: 29 January 2018
Orbit: 411 x 421 km, 51.6° (Epoch: 21 October)

Event Time Altitude Azimuth Distance (km) Brightness Sun altitude
Rises 20:27:25 0° 292° (WNW) 2,386 1.1 -31.2°
Reaches altitude 10° 20:29:32 10° 296° (WNW) 1,527 -0.1 -31.6°
Enters shadow 20:29:46 12° 297° (WNW) 1,431 -0.3 -31.6°
